TimePST,TemperatureF,Dew PointF,Humidity,Sea Level PressureIn,VisibilityMPH,Wind Direction,Wind SpeedMPH,Gust SpeedMPH,PrecipitationIn,Events,Conditions,WindDirDegrees,DateUTC
12:53 AM,26.1,19.9,78,30.24,10.0,Calm,Calm,-,N/A,,Clear,0,2013-01-03 08:53:00
1:53 AM,25.0,19.9,81,30.24,10.0,Calm,Calm,-,N/A,,Clear,0,2013-01-03 09:53:00
2:53 AM,24.1,19.9,84,30.23,10.0,Calm,Calm,-,N/A,,Clear,0,2013-01-03 10:53:00
3:53 AM,23.0,19.0,85,30.22,10.0,Calm,Calm,-,N/A,,Clear,0,2013-01-03 11:53:00
4:53 AM,23.0,19.0,85,30.21,10.0,Calm,Calm,-,N/A,,Clear,0,2013-01-03 12:53:00
5:53 AM,23.0,19.0,85,30.20,10.0,Calm,Calm,-,N/A,,Clear,0,2013-01-03 13:53:00
6:53 AM,25.0,19.9,81,30.19,10.0,Calm,Calm,-,N/A,,Clear,0,2013-01-03 14:53:00
7:53 AM,23.0,19.0,85,30.19,10.0,WNW,3.5,-,N/A,,Clear,300,2013-01-03 15:53:00
8:53 AM,28.9,21.9,75,30.20,10.0,Calm,Calm,-,N/A,,Clear,0,2013-01-03 16:53:00
9:53 AM,35.1,25.0,67,30.21,10.0,NNE,3.5,-,N/A,,Clear,20,2013-01-03 17:53:00
10:53 AM,37.0,21.0,52,30.21,10.0,NW,3.5,-,N/A,,Clear,320,2013-01-03 18:53:00
11:53 AM,39.9,21.9,49,30.19,10.0,Calm,Calm,-,N/A,,Clear,0,2013-01-03 19:53:00
12:53 PM,39.0,21.9,50,30.19,10.0,ESE,13.8,-,N/A,,Overcast,120,2013-01-03 20:53:00
1:53 PM,39.0,21.0,49,30.19,10.0,ESE,10.4,20.7,N/A,,Overcast,120,2013-01-03 21:53:00
2:53 PM,39.0,23.0,53,30.18,10.0,ESE,9.2,-,N/A,,Overcast,120,2013-01-03 22:53:00
3:53 PM,37.9,23.0,55,30.17,10.0,ESE,12.7,17.3,N/A,,Overcast,120,2013-01-03 23:53:00
4:53 PM,37.0,23.0,57,30.19,10.0,ESE,8.1,16.1,0.00,Rain,Light Rain,120,2013-01-04 00:53:00
5:53 PM,37.0,24.1,59,30.19,10.0,SE,9.2,-,0.00,,Overcast,130,2013-01-04 01:53:00
6:53 PM,37.0,26.1,65,30.21,10.0,SE,8.1,-,N/A,,Overcast,130,2013-01-04 02:53:00
7:53 PM,35.1,28.0,76,30.22,10.0,South,9.2,-,N/A,,Overcast,180,2013-01-04 03:53:00
8:53 PM,34.0,28.0,79,30.23,10.0,SE,5.8,19.6,0.00,Rain,Light Rain,130,2013-01-04 04:53:00
9:53 PM,34.0,30.0,85,30.26,10.0,SE,4.6,-,0.00,,Overcast,140,2013-01-04 05:53:00
10:53 PM,34.0,30.9,89,30.27,10.0,ESE,12.7,-,N/A,,Overcast,120,2013-01-04 06:53:00
11:53 PM,34.0,30.0,85,30.28,10.0,ESE,11.5,-,N/A,,Overcast,120,2013-01-04 07:53:00